Погода в Бикине

Погода в Бикине : погода сейчас, прогноз погоды и архив. Всё, что Вы хотите узнать о погоде в Бикине!

Хотите узнать прогноз погоды в Бикине? Тогда Вам сюда: Погода в Бикине

Поиск расширенной информации на нашем сайте:

Другие новости

Новости СМИ2

Главная страница сайта

Новости сайта

03.07.2017

Напоминаем, что на нашем специализированном сайте Метеоцентр.Азия вы можете получить высокодетализированные автоматические прогнозы погоды по пунктам России, СНГ и мира в авиационном формате (включающие направление и скорость ветра, видимость, явления погоды, количество и форму облачности, нижнюю и верхнюю границу облачности).

Рекомендуем: http://tekstail.com.ua/ кухонные шторы купить. Фото штор.

Погода в Бикине - сегодня

Время (UTC), дата Ветер
(°,м/с) 
Видим.   Явления Облачность Т
(°С)
Тd
(°С)
f(%) Тe
(°С)
Pmin
(гПа)
dP
(гПа)
Po
(мм)
O2
(г/м3)
Тmin Tmax R s Состояние
почвы
03 20.07.17 340 (С) 20000 м    10/1 600 м средняя 
[Sc|Ac As]
+25.3 +15.5 55 +35  1004.7  0.4  748  273           
06 20.07.17 350 (С) 20000 м    10/1 600 м средняя, верхняя 
[Cu med, cong|Ac trans|Cs]
+26.7 +15.7 51 +37  1003.2  -1.5  747  271           
09 20.07.17 020 (С) 20000 м    10/3 600 м средняя 
[Sc|Ac As]
+23.2 +15.8 63 +33  1003.8  0.5  747  274    +27.2       
12 20.07.17 070 (В) 10 км  слаб. дождь  10/10 600 м 
[Sc]
+19.8 +16.8 83 +33  1004.6  0.8  748  277           
15 20.07.17 010 (С) 10 км  слаб. дождь  10/0 средняя 
[As op]
+18.2 +17 93 +32  1004  -0.6  747  278           
18 20.07.17 110 (В) 10 км  {дождь}  10/0 средняя 
[As op]
+17.3 +16.2 93 +30  1003.6  -0.5  747  279           
21 20.07.17 140 (ЮВ) 20000 м    10/0 средняя 
[Ac und]
+17.6 +15.3 86 +28  1003.7  0.1  747  279  +17.1    0.7    влажная 
00 21.07.17 280 (З) 20000 м    3/1 600 м средняя 
[Cu hum|Ac lent]
+21.8 +16.3 71 +33  1004.7  1.1  748  275           
03 21.07.17 290 (З) 20000 м    3/3 600 м 
[Cu med, cong]
+26.1 +13.9 47 +33  1004.7  0.1  748  272           
06 21.07.17 330 (СЗ) 20000 м    3/3 600 м 
[Cu med, cong]
+26.6 +11.1 38 +29  1005.2  0.5  748  273           
09 21.07.17 310 (СЗ) 20000 м    1/1 600 м 
[Cu med, cong]
+25.7 +12.4 44 +30  1006.6  1.4  749  274    +27.1       
12 21.07.17 100 (В) 20000 м    1/0 средняя 
[Ac trans]
+18.6 +14.2 76 +27  1008.9  751  280           
15 21.07.17 070 (В) 20000 м    ясно 
+16.1 +13.9 87 +24  1009.6  0.6  751  283           
18 21.07.17 тихо ()   10 км    ясно 
+14 +13 94 +19  1010.3  0.7  752  286           
21 21.07.17 тихо ()   20000 м    ясно 
+15.3 +12.6 84 +20  1011.8  1.5  753  285  +13.2        влажная 
00 22.07.17 210 (ЮЗ) 20000 м    3/0 верхняя 
[Ci fib]
+22.4 +15 63 +31  1012  0.4  753  277           
03 22.07.17 010 (С) 20000 м    6/0 верхняя 
[Ci sp]
+26.2 +12.5 43 +31  1010.7  -1.2  752  274           
06 22.07.17 320 (СЗ) 20000 м    ясно 
+27.4 +11.4 37 +30  1009.9  -0.8  752  273           
09 22.07.17 330 (СЗ) 20000 м    ясно 
+26.9 +10.8 37 +29  1009  -0.8  751  274    +28.1       
12 22.07.17 080 (В) 10 км    8/0 верхняя 
[Ci fib]
+18.2 +14.8 81 +28  1009.4  0.2  751  281           
15 22.07.17 тихо ()   10 км    6/0 верхняя 
[Ci fib]
+15.7 +13.4 86 +22  1008.5  -0.9  750  283           
18 22.07.17 110 (В) 10 км    3/0 верхняя 
[Ci fib]
+16.6 +13.8 84 +25  1007  -1.5  749  282           
21 22.07.17 330 (СЗ) 20000 м    10/4 600 м верхняя 
[Sc|Ci sp]
+15.7 +13.6 87 +23  1007.3  0.3  750  283  +14.9        влажная 
00 23.07.17 140 (ЮВ) 20000 м    6/5 600 м средняя 
[Sc|Ac trans]
+21.5 +15.6 69 +31  1005.7  -1.4  749  276           
03 23.07.17 160 (Ю) 20000 м    3/1 600 м верхняя 
[Sc|Ci fib]
+27.4 +16.1 50 +38  1003.7  -1.8  747  270           
Время (UTC), дата Ветер
(°,м/с) 
Видим.   Явления Облачность Т
(°С)
Тd
(°С)
f(%) Тe
(°С)
Pmin
(гПа)
dP
(гПа)
Po
(мм)
O2
(г/м3)
Тmin Tmax R s Состояние
почвы

Для получения пояснительной информации подведите курсор к названию столбца.

ПОГОДА в Бикине - архив

Всё, что Вы хотите узнать о погоде в Бикине - удобно и подробно!

Выберите нужную дату (начиная с 1 января 2015* года) и нажмите кнопку "Найти".
Будут отображены архивные сводки погоды по пункту Бикин, начиная с указанной даты.


Отображать данные в формате CSV (для использования в таблицах Excel)


Внимание! Наш архив погоды предназначен исключительно для личного некоммерческого использования в познавательных целях. Если Вам необходимы официальные справки о состоянии погоды (для производственных, юридических, коммерческих и т.п. целей), обращайтесь в органы Росгидромета.

*Примечание: данная дата относится к архиву по метеостанциям СССР (Россия, СНГ, Балтия).
Архив по метеостанциям Зарубежной Европы и Азии (кроме Китая) хранится 10 дней, по другим регионам земного шара (Китай, Африка, Америка, Австралия, Океания) - 1 день.

Бикин - район местоположения метеостанции


Название, широта, долгота, высота метеостанции:
Бикин 46.8°ш. 134.3°д. 68 м над ур. моря [Российская Федерация]

Дополнительная информация

В oтличие oт бoльшинства пoгoдных сайтoв мы публикуем пoдрoбную метеoинфoрмацию в детальнoм прoфессиoнальнoм фoрмате.

Характеристики температуры и влажнoсти вoздуха измеряются на высoте 2 м в тени вдали oт зданий и деревьев.
Скoрoсть ветра измеряется на высoте 10 м (на урoвне рoста челoвека скoрoсть ветра ниже в 1.5-2 раза). Если метеoстанция нахoдится в гoрoде или в лесу, тo скoрoсть ветра занижена на 2-4 м/с пo сравнению с oткрытым местoм. Скoрoсть ветра над акватoриями крупных рек и oзёр, а также на вершинах хoлмoв на 2-5 м/с выше, чем в oбычных услoвиях.
Атмoсфернoе давление в разных тoчках местнoсти мoжет значительнo oтличаться oт давления на метеoстанции, в зависимoсти oт услoвий рельефа (при пoдъёме на 10 м давление пoнижается примернo на 1 мм рт.ст.).